Location: Sternwarte auf dem Internationalen Platz Vogelsang IP
(50.5721°N, 6.4398°E)
Time: 17:28:32
(UTC+01:00)

Transit 2A Rocket - Pass Details

Date: 17 December 2025
Orbit: 581 x 903 km, 66.7° (Epoch: 16 January)

Event Time Altitude Azimuth Distance (km) Brightness Sun altitude
Rises 12:01:22 0° 295° (WNW) 3,482 8.1 15.8°
Reaches altitude 10° 12:04:49 10° 315° (NW) 2,572 7.3 15.8°
Maximum altitude 12:08:40 17° 355° (N) 2,115 6.8 15.9°
Drops below altitude 10° 12:12:34 10° 35° (NE) 2,588 7.3 16.0°
Sets 12:16:02 0° 55° (NE) 3,511 8.1 16.0°
